1998-067NM (43203 NORAD) Tracking and Keplerian Element Data

This shows tracking and keplerian element data for the satellite.

Feedback or suggestion? Click here.




ElementValue
Catalog43203
Name1998-067NM
Epoch Orbit18
Epoch Day35.22448774
Epoch Year2018
RAAN321.5518
Inclination51.6433
Eccentricity0.0001669
Argument of Perigee107.4006
Mean Anonmoly252.6876
Mean Motion15.54628852
Decay Rate9.39E-06
L11 43203U 98067NM 18035.22448774 .00000939 00000-0 21066-4 0 9997
L22 43203 51.6433 321.5518 0001669 107.4006 252.6876 15.54628852 182



Live tracking and technical data element details for 1998-067NM (NORAD 43203). 1998-067NM can be tracked NOW for your location showing map with azimuth and elevation plus other details from your city location.







IsCatalogInMostPopularTable: catalog: 43203, numindb: 930
Update: records affected: 1



GetName: 43203 1998-067NM

Hit Count: updated at: Sat, 20 Apr 2024 11:12:46 GMT